Location: Newark
(7.0858°N, 171.3717°E)
Time: 07:57:15
(UTC+00:00)

Courier 1B - Pass Details

Date: 28 November 2020
Orbit: 962 x 1209 km, 28.3° (Epoch: 20 January)

Event Time Altitude Azimuth Distance (km) Brightness Sun altitude
Rises 14:40:28 0° 315° (NW) 3,924 - -53.8°
Reaches altitude 10° 14:44:07 10° 332° (NNW) 3,011 - -53.0°
Maximum altitude 14:49:19 20° 17° (NNE) 2,407 - -51.8°
Drops below altitude 10° 14:54:40 10° 61° (ENE) 3,111 - -50.6°
Exits shadow 14:55:05 - 63° (ENE) 3,204 10.4 -50.5°
Sets 14:58:30 0° 77° (ENE) 4,095 11.2 -49.8°
